Rbgn^[z[y[W
メイン
   新天体発見情報
     Comet C/2019 Q4 (Borisov)
投稿するにはまず登録を

スレッド表示 | 新しいものから 前のトピック | 次のトピック | 下へ
投稿者 スレッド
佐藤裕久
投稿日時: 2019-9-24 22:11
モデレータ
登録日: 2005-6-12
居住地: 日本
投稿: 2505
オンライン
Comet C/2019 Q4 (Borisov)

Gennady Borisovの通報によると、8月30.04日UT、MARGO天文台 (Nauchnij近郊, クリミア)の0.65-m f/1.5 
アストログラフで得た画像から拡散した、適度に集光した約7" のコマとp.a. 310°に15"の尾らしいものが
ある新彗星を発見した。0'.5の円形範囲で測定したr全光度は18.0等であった。
小惑星センターのPCCP webpageに公表後、D. T. Durig (0.3-m f/5 Schmidt-Cassegrain反射望遠鏡, Sewanee, 
テネシー州; 9月3.4日UT、10秒露出50枚の画像で、r光度17.7等の拡散した天体に見えた。9月4.4日は、10秒
露出150枚の画像で、4"の恒星状の核と23"のコマが見え、9月8.4日は、10秒露出170枚の画像で、r光度17.1-
17.3等、16" のコマが見え、9月10.4日は、10秒露出200枚の画像で、15"のコマとp.a. 310°に50"の尾が見える)
や佐藤英貴氏(東京都文京区, iTelescope天文台,9月1.5日UT、60秒露出10枚のスタック, 0.43-m f/6.8 アスト
ログラフ, Mayhill近郊, ニューメキシコ州, 遠隔操作:強い集光のある12" のコマがあるが尾はない。7".6の
円形範囲で測定した光度は17.9等であった。また、9月3.47日は、60秒露出8枚のスタックで、強い集光のある
18" のコマがあるが尾はない。7".6の円形範囲で測定した光度は19.8等であった)らによって彗星状と観測された。
ほんの1週間の位置観測の後、彗星の軌道は、e>>1と目立って放物線から逸脱した。

発見位置は次のとおり、

     2019 UT             R.A. (2000) Decl.       Mag.   Observer
     Aug. 30.04398    8 26 37.82   +33 39 52.7   17.8   Borisov
          30.05691    8 26 39.35   +33 39 39.9   17.8     "
          30.06759    8 26 40.50   +33 39 30.3   17.7     "
          31.03731    8 28 29.72   +33 24 00.9   18.4     "
          31.03981    8 28 30.04   +33 23 57.7   18.5     "
          31.06934    8 28 33.27   +33 23 31.1   18.4     "
          31.07168    8 28 33.62   +33 23 27.9   18.4     "

MPCの双曲線軌道要素、位置推算表は次のとおり、

Orbital elements:
    C/2019 Q4 (Borisov)                                                         
Epoch 2019 Dec. 23.0 TT = JDT 2458840.5                                         
T 2019 Dec. 10.23244 TT                                 Williams                
q   1.9402023            (2000.0)            P               Q                  
z  -1.0717866      Peri.  210.69784     -0.81175500     -0.17378620             
 +/-0.0580079      Node   307.53784     +0.56543012     -0.47270554             
e   3.0794827      Incl.   44.67800     -0.14609104     -0.86391425             
From 145 observations 2019 Aug. 30-Sept. 11, mean residual 0".5.                
                                                                                
    C/2019 Q4 (Borisov)                                                         
Epoch 2019 Apr. 27.0 TT = JDT 2458600.5                                         
T 2019 Dec. 10.22933 TT                                 Williams                
q   1.9401198            (2000.0)            P               Q                  
z  -1.0719332      Peri.  210.69784     -0.81178694     -0.17377598             
 +/-0.0580079      Node   307.54021     +0.56538374     -0.47273850             
e   3.0796789      Incl.   44.67540     -0.14609311     -0.86389827             
From 145 observations 2019 Aug. 30-Sept. 11, mean residual 0".5.                
                                                                                
Ephemeris:
Date    TT    R. A. (2000) Decl.     Delta      r    Elong.  Phase   m1
2019 08 12    07 52 52.7 +37 54 38   4.0466  3.2142    30.4     9.2  19.1
...
2019 08 27    08 20 55.0 +34 27 12   3.7229  2.9708    36.4    11.6  18.6
...
2019 09 04    08 35 55.6 +32 18 45   3.5476  2.8460    39.7    13.1  18.3
...
2019 09 10    08 47 10.9 +30 33 05   3.4158  2.7550    42.3    14.2  18.1
2019 09 11    08 49 03.3 +30 14 38   3.3939  2.7401    42.7    14.4  18.0
2019 09 12    08 50 55.8 +29 55 57   3.3720  2.7252    43.1    14.6  18.0
...
2019 09 18    09 02 09.7 +27 58 24   3.2411  2.6379    45.6    15.8  17.8
...
2019 09 26    09 17 06.1 +25 06 19   3.0687  2.5262    49.0    17.4  17.5
...
2019 10 11    09 44 54.3 +18 49 59   2.7575  2.3347    55.1    20.5  16.9

     This object was reported as a comet candidate by G. Borisov (L51) on Aug.
30 UTC.  After posting on the NEOCP/PCCP, confirmation of the cometary nature
was provided by numerous observers.  Selected reports are as follows:

OC  Date     Observer(s)     Coma              Tail                 Exp.
L51 20190830 G. Borisov       7", condensed           
L51 20190901 G. Borisov       7", condensed    15", P.A. 300-320     9 x 120s
H06 20190901 H. Sato         12", condensed                         10 x  60s
J95 20190902 P. Birtwhistle  12", diffuse      Poss. elongation in P.A. 300
N55 20190906 T. Chen et al.   4", mod. cond.   Elongation in P.A. 330/140
850 20190908 D. T. Durig     23", diffuse      24", P.A. 240-300   150 x  10s
J95 20190908 P. Birtwhistle  14", condensed    Extended in P.A. 295
121 20190908 I. Slyusarev    10", condensed    50" in P.A. 310
568 20190908 K. Meech         5", condensed    40" in P.A. 315
 
Based on the available observations, the orbit solution for this object has
converged to the hyperbolic elements shown below, which would indicate an
interstellar origin.  A number of other orbit computers have reached similar
conclusions, initially D. Farnocchia (JPL), W. Gray, and D. Tholen (UoH).
Further observations are clearly very desirable, as all currently-available
observations have been obtained at small solar elongations and low elevations.
Absent an unexpected fading or disintegration, this object should be observable
for at least a year.

(CBET 4666、MPEC 2019-R106)

Orbital elements:
    C/2019 Q4 (Borisov)                                                         
Epoch 2019 Dec. 23.0 TT = JDT 2458840.5                                         
T 2019 Dec. 8.40299 TT                                  Williams                
q   2.0127091            (2000.0)            P               Q                  
z  -1.1841563      Peri.  208.98545     -0.81493002     -0.19480166             
 +-/0.0057168      Node   308.20345     +0.56675412     -0.46474861             
e   3.3833623      Incl.   43.99634     -0.12115622     -0.86374825             
From 457 observations 2019 Aug. 30-Sept. 23, mean residual 0".5.                
                                                                                
    C/2019 Q4 (Borisov)                                                         
Epoch 2019 Apr. 27.0 TT = JDT 2458600.5                                         
T 2019 Dec. 8.40006 TT                                  Williams                
q   2.0126273            (2000.0)            P               Q                  
z  -1.1843105      Peri.  208.98541     -0.81496106     -0.19479186             
 +/-0.0057168      Node   308.20581     +0.56670903     -0.46478201             
e   3.3835756      Incl.   43.99379     -0.12115833     -0.86373249             
From 457 observations 2019 Aug. 30-Sept. 23, mean residual 0".5.                
                                                                                
Ephemeris:
Date    TT    R. A. (2000) Decl.     Delta      r    Elong.  Phase   m1
2019 08 24    08 15 17.8 +35 11 59   3.8605  3.0894    35.2    10.9  18.8
...
2019 09 08    08 43 25.9 +31 09 14   3.5273  2.8508    41.4    13.5  18.3
...
2019 09 16    08 58 25.2 +28 38 40   3.3504  2.7302    44.8    15.0  18.0
...
2019 09 22    09 09 38.2 +26 34 45   3.2193  2.6435    47.3    16.2  17.8
2019 09 23    09 11 30.2 +26 13 08   3.1976  2.6294    47.7    16.4  17.7
2019 09 24    09 13 22.1 +25 51 13   3.1760  2.6153    48.1    16.6  17.7
...
2019 09 30    09 24 32.2 +23 33 30   3.0477  2.5335    50.6    17.8  17.5
...
2019 10 08    09 39 20.5 +20 12 15   2.8814  2.4308    53.9    19.4  17.2
...
2019 10 23    10 06 47.5 +12 54 50   2.5910  2.2619    59.9    22.4  16.6

(MPEC 2019-S62)


2I/Borisov = C/2019 Q4 (Borisov) 

恒星間天体の符号2Iがついた。

     Continued observation and analysis of this object has confirmed its
hyperbolic orbit and interstellar origin.  The Minor Planet Center has
therefore assigned the permanent interstellar designation 2I to it.  The IAU
Working Group for Small Body Nomenclature has decided to retain the name
Borisov for the permanent designation.


Orbital elements:
   2I/Borisov
Epoch 2019 Dec. 23.0 TT = JDT 2458840.5                                         
T 2019 Dec. 8.46710 TT                                  Williams                
q   2.0101289            (2000.0)            P               Q                  
z  -1.1800352      Peri.  209.04368     -0.81482693     -0.19409016             
 +/-0.0054146      Node   308.18015     +0.56672137     -0.46500733             
e   3.3720228      Incl.   44.01991     -0.12199984     -0.86376918             
From 472 observations 2019 Aug. 30-Sept. 24, mean residual 0".5.                
                                                                                
    2I/Borisov                                                         
Epoch 2019 Apr. 27.0 TT = JDT 2458600.5                                         
T 2019 Dec. 8.46417 TT                                  Williams                
q   2.0100470            (2000.0)            P               Q                  
z  -1.1801891      Peri.  209.04364     -0.81485800     -0.19408035             
 +/-0.0054146      Node   308.18251     +0.56667624     -0.46504072             
e   3.3722355      Incl.   44.01735     -0.12200195     -0.86375341             
From 472 observations 2019 Aug. 30-Sept. 24, mean residual 0".5.                
                                                                                
Ephemeris:
Date    TT    R. A. (2000) Decl.     Delta      r    Elong.  Phase   m1
2019 08 25    08 17 10.2 +34 57 15   3.8358  3.0705    35.6    11.0  18.8
...
2019 09 09    08 45 18.4 +30 51 17   3.5027  2.8330    41.8    13.7  18.2
...
2019 09 17    09 00 17.5 +28 18 41   3.3261  2.7132    45.2    15.2  17.9
...
2019 09 23    09 11 30.2 +26 13 08   3.1953  2.6271    47.7    16.4  17.7
2019 09 24    09 13 22.1 +25 51 13   3.1737  2.6131    48.1    16.6  17.7
2019 09 25    09 15 14.0 +25 29 01   3.1521  2.5992    48.6    16.8  17.6
...
2019 10 01    09 26 23.6 +23 09 28   3.0242  2.5180    51.0    18.0  17.4
...
2019 10 09    09 41 11.1 +19 45 34   2.8588  2.4164    54.3    19.6  17.1
...
2019 10 24    10 08 36.6 +12 22 35   2.5706  2.2498    60.3    22.6  16.6

(MPEC 2019-S71)

スレッド表示 | 新しいものから 前のトピック | 次のトピック | トップ

投稿するにはまず登録を
 
© 1999 Tsutomu Seki.